Location: Barouche
(50.5667°N, 4.2167°E)
Time: 05:27:41
(UTC+00:00)

Daily predictions for brighter satellites

Satellite Brightness Start Highest point End
(mag) Time Altitude Azimuth Time Altitude Azimuth Time Altitude Azimuth
Cosmos 1331 Rocket 4.0 00:06:52 76° WNW 00:06:54 76° WNW 00:12:11 10° NNE
ATLAS 2AS CENTAUR R/B 2.7 00:09:45 51° WSW 00:11:40 79° NW 00:18:32 10° NE
Cosmos 1891 Rocket 4.5 00:12:15 61° SW 00:13:07 69° WNW 00:19:21 10° N
IDEFIX/ARIANE 42P 4.5 00:12:09 10° NE 00:15:41 18° E 00:16:41 17° ESE
Cosmos 1900 4.4 00:17:30 75° NNW 00:17:30 75° NNW 00:22:16 10° NE
Meteor 1-20 Rocket 4.3 00:12:49 10° NNW 00:18:03 59° W 00:18:03 59° W
Meteor 1-5 Rocket 4.0 00:15:13 10° N 00:20:38 81° ENE 00:20:58 77° SE
Cosmos 1953 Rocket 4.4 00:18:03 10° N 00:22:18 43° ENE 00:22:18 43° ENE
Cosmos 1110 Rocket 4.3 00:23:00 53° W 00:23:24 55° WNW 00:28:38 10° NNE
Cosmos 1980 Rocket 2.1 00:18:45 10° NNW 00:24:19 69° WSW 00:24:19 69° WSW
USA 234 4.0 00:21:22 10° E 00:27:41 53° N 00:34:00 10° WNW
Cosmos 1825 Rocket 3.9 00:28:46 10° N 00:32:19 60° N 00:32:19 60° N
COSMOS 2406 4.5 00:32:29 27° ESE 00:33:07 28° ESE 00:37:56 10° NE
Meteor 2-10 4.0 00:30:05 10° NNW 00:35:36 89° W 00:36:02 77° S
Cosmos 2369 3.6 00:30:00 10° NNW 00:35:44 84° ENE 00:36:37 65° SE
Cosmos 2084 4.0 00:46:23 54° NE 00:46:23 54° NE 00:49:38 10° NE
Cosmos 1627 Rocket 4.4 00:40:44 10° N 00:47:03 87° E 00:48:29 57° SSE
Cosmos 1607 4.5 00:47:22 41° SE 00:48:04 42° ESE 00:53:54 10° NE
Cosmos 2360 Rocket 3.8 00:46:06 10° NNW 00:51:12 33° NE 00:56:18 10° ESE
Cosmos-2242 3.7 00:52:12 46° E 00:52:12 46° E 00:55:59 10° NNE
Cosmos 2333 Rocket 3.0 00:46:58 10° NNW 00:52:29 49° NE 00:57:05 15° ESE
USA 281 3.5 00:51:27 21° SE 00:55:58 66° ENE 01:02:30 10° NNW
Cosmos 1452 Rocket 4.2 00:58:56 39° W 00:59:47 42° WNW 01:04:47 10° NNE
Cosmos 2082 Rocket 2.1 00:59:24 66° S 01:00:12 80° ESE 01:05:58 10° NNE
Cosmos 1833 Rocket 4.1 01:00:04 23° W 01:02:21 30° NW 01:07:18 10° NNE
Nadezhda 4 Rocket 4.4 00:57:44 10° NNW 01:03:27 42° W 01:04:04 41° WSW
Cosmos 2098 Rocket 4.1 01:03:15 46° W 01:03:58 48° WNW 01:09:24 10° N
Cosmos 2279 Rocket 4.4 01:03:59 38° SSE 01:06:07 55° E 01:12:12 10° NNE
Cosmos 2278 4.3 01:00:41 10° NNW 01:06:18 55° NE 01:11:11 14° SE
Cosmos 2322 Rocket 3.3 01:01:20 10° NNW 01:06:42 42° NE 01:12:02 10° ESE
Cosmos 1486 Rocket 4.4 01:02:02 10° NNW 01:07:12 59° ENE 01:09:36 31° SE
Cosmos 1867 4.2 01:06:15 39° W 01:07:48 50° NW 01:13:08 10° NE
Cosmos 2221 4.3 01:07:40 21° ESE 01:08:36 22° E 01:11:50 10° NE
Resurs 1-4 Rocket 4.5 01:05:35 10° NE 01:08:40 15° E 01:11:45 10° ESE
NOSS 3-3 (A) 4.2 01:14:12 39° SE 01:15:00 42° ESE 01:20:40 10° NE
ACS3 Solar Sail 1.7 01:10:52 10° NNE 01:16:56 84° WNW 01:18:33 52° SSW
Cosmos 1606 Rocket 4.3 01:18:01 41° WNW 01:18:01 41° WNW 01:22:03 10° N
Cosmos 1777 Rocket 4.4 01:12:37 10° NNW 01:17:52 63° ENE 01:20:41 27° SE
Cosmos 2219 Rocket 3.8 01:15:27 10° NNW 01:20:33 34° NE 01:25:40 10° ESE
SL-16 R/B 2.2 01:16:13 10° NNW 01:21:56 82° ENE 01:24:53 30° SE
CZ-4C R/B 1.6 01:22:06 72° WSW 01:22:33 84° NW 01:28:09 10° NE
GP-B 3.1 01:19:13 10° N 01:23:25 62° WNW 01:23:25 62° WNW
Cosmos 1271 Rocket 4.3 01:27:38 24° E 01:27:56 24° E 01:30:48 10° NE
SL-4 R/B 3.5 01:31:34 24° ESE 01:31:34 24° ESE 01:33:10 10° ESE
ATLAS 3B R/B 3.6 01:22:47 10° NW 01:29:24 32° WSW 01:29:24 32° WSW
CZ-2C R/B 4.4 01:30:23 18° W 01:30:23 18° W 01:33:36 10° NW
NOSS 3-3 (C) 4.2 01:30:27 39° SSE 01:31:42 46° ESE 01:37:33 10° NE
USA 267 4.1 01:26:08 10° ENE 01:32:01 34° SE 01:34:01 29° SSE
Cosmos 2058 Rocket 2.9 01:32:04 74° SW 01:32:20 79° W 01:36:46 10° N
Cosmos 2026 Rocket 4.4 01:27:56 10° NNW 01:33:49 44° W 01:35:01 40° WSW
Cosmos 2266 Rocket 4.3 01:28:51 10° N 01:34:56 61° ENE 01:39:09 20° SSE
Gbstr 26 Del rocket 3.5 01:37:23 39° ESE 01:37:23 39° ESE 01:39:47 10° ESE
Cosmos 1470 3.0 01:33:06 10° N 01:36:16 51° ENE 01:36:16 51° ENE
KORONAS-FOTON 3.9 01:38:28 60° NNE 01:38:28 60° NNE 01:41:18 10° NNE
Cosmos 909 Rocket 4.1 01:37:58 40° WSW 01:40:22 72° NW 01:46:50 10° NE
Cosmos 1092 Rocket 4.5 01:41:49 10° NNW 01:47:28 40° W 01:48:43 36° WSW
Cosmos 1536 3.4 01:44:03 10° NNW 01:46:48 40° NW 01:46:48 40° NW
Cosmos 1812 Rocket 4.3 01:49:34 32° SE 01:51:06 46° E 01:55:16 10° NNE
Meteor 2-6 Rocket 4.2 01:49:06 40° S 01:51:19 87° E 01:57:16 10° NNE
NOSS 3-4 (A) 4.2 01:45:26 10° NW 01:51:52 63° NE 01:59:29 10° ESE
NOSS 3-4 (C) 4.2 01:45:58 10° NW 01:52:25 63° NE 02:00:02 10° ESE
Meteor 1-26 Rocket 4.4 01:51:49 42° WSW 01:53:11 53° WNW 01:58:31 10° N
IDEFIX/ARIANE 42P 2.5 01:50:31 10° NNE 01:55:42 76° WNW 01:57:22 44° SSW
Envisat 4.0 01:53:27 10° NNE 01:58:14 40° E 02:01:23 19° SSE
Aureole 1 Rocket 4.3 01:55:01 10° N 01:58:52 41° ENE 02:03:35 10° SE
Cosmos 1707 3.8 02:03:05 23° NW 02:03:05 23° NW 02:04:44 10° N
Cosmos 2084 Rocket 3.5 01:58:08 10° NW 02:02:20 75° NE 02:06:35 10° SE
ATLAS 2AS CENTAUR R/B 4.0 01:57:21 10° W 02:03:31 34° NNW 02:09:38 10° NE
Iridium 4 Rocket 3.9 02:03:01 23° SSE 02:05:49 56° E 02:10:48 10° N
Cosmos 1980 Rocket 4.3 02:05:12 10° WNW 02:06:03 11° W 02:06:03 11° W
MOZ.5/SAFIR/RUBIN 5/SL-8 3.6 02:05:32 31° SSE 02:07:49 85° WSW 02:12:31 10° NNW
H-2A R/B 3.0 02:06:25 16° SE 02:09:03 47° ENE 02:12:32 10° N
Cosmos 1975 2.4 02:06:31 10° NNW 02:10:10 73° W 02:10:35 63° SSW
Cosmos 44 Rocket 3.8 02:08:21 34° WSW 02:10:22 56° NW 02:15:30 10° NE
USA 234 3.3 02:03:52 10° ESE 02:10:25 83° NNE 02:17:00 10° WNW
Cosmos 990 Rocket 3.9 02:05:25 10° NNW 02:10:35 88° ENE 02:15:44 10° SSE
ADEOS II 3.5 02:07:01 10° NNE 02:11:43 32° E 02:16:22 10° SSE
Cosmos 1763 Rocket 3.7 02:13:16 31° S 02:15:49 70° ESE 02:21:06 10° NNE
Cosmos 1238 Rocket 4.1 02:15:06 18° SE 02:16:21 24° E 02:18:51 10° NNE
ALOS 3.2 02:12:02 10° NNE 02:16:22 41° E 02:19:31 17° SSE
COSMOS 2406 3.5 02:14:30 33° WSW 02:17:02 60° NW 02:22:46 10° NNE
MSX 4.1 02:11:34 10° N 02:17:11 56° WNW 02:19:47 31° SW
COSMOS 2428 4.5 02:14:22 10° NNW 02:19:34 34° NE 02:24:43 10° ESE
CZ-2D R/B 2.8 02:15:19 10° NNE 02:20:26 50° E 02:24:32 16° S
SL-16 R/B 4.2 02:16:24 10° ESE 02:21:59 35° ENE 02:27:35 10° N
ADEOS Rocket 3.6 02:15:55 10° NNE 02:23:29 81° WNW 02:28:49 23° SSW
Cosmos 1354 Rocket 4.0 02:27:51 10° NNW 02:33:05 63° WSW 02:38:15 10° S
Cosmos 220 Rocket 4.3 02:32:09 34° WSW 02:33:23 46° WNW 02:37:18 10° NNE
Cosmos 1503 Rocket 4.3 02:29:23 10° NW 02:34:22 43° WSW 02:37:00 24° SSW
Cosmos 1607 4.4 02:31:28 23° WSW 02:35:14 53° NW 02:41:23 10° NE
Cosmos 1842 4.0 02:35:26 26° WNW 02:35:27 26° WNW 02:38:13 10° NNW
FENGYUN 3A 4.0 02:30:13 10° N 02:35:28 51° WNW 02:38:13 27° SW
Cosmos 2360 Rocket 2.2 02:29:57 10° NW 02:35:30 57° WSW 02:41:02 10° S
Cosmos 2333 Rocket 2.8 02:31:31 10° NW 02:36:37 35° WSW 02:39:00 25° SSW
Alouette 2 Rocket 3.5 02:33:20 10° NNW 02:37:33 70° ENE 02:41:06 10° SSE
USA 305 3.0 02:38:24 23° N 02:38:24 23° N 02:39:36 10° NE
USA 281 3.9 02:38:17 24° SW 02:40:53 31° WSW 02:46:38 10° NW
Meteor 2-10 Rocket 4.5 02:38:06 10° N 02:43:03 48° ENE 02:48:07 10° SSE
Cosmos 540 Rocket 3.4 02:41:18 25° SSW 02:44:19 80° WNW 02:49:30 10° NNE
Cosmos 2082 Rocket 3.7 02:41:13 14° W 02:44:57 26° NW 02:49:42 10° NNE
H-2A R/B 4.4 02:42:15 10° NE 02:45:06 18° E 02:47:53 10° SE
Cosmos 2221 3.1 02:43:58 29° WSW 02:45:24 39° WNW 02:49:18 10° N
NPP 4.3 02:43:31 10° N 02:48:31 40° WNW 02:51:28 22° WSW
Resurs 1-4 Rocket 2.1 02:43:50 10° NNE 02:49:11 90° W 02:53:20 17° SSW
Cosmos 2278 4.5 02:45:13 10° NW 02:50:09 31° WSW 02:52:57 20° SSW
Cosmos 468 Rocket 4.2 02:46:38 18° S 02:50:37 70° ESE 02:55:55 10° NNE
Cosmos 2322 Rocket 2.6 02:45:29 10° NW 02:50:44 41° WSW 02:55:59 10° S
BREEZE-M DEB (TANK) 2.9 02:50:12 25° W 02:51:49 71° S 02:59:00 10° ESE
DNEPR-1 R/B 4.2 02:48:30 10° NW 02:53:46 68° SW 03:00:12 10° SSE
Cosmos 1766 Rocket 3.4 02:52:24 10° NNW 02:56:46 77° W 03:01:03 10° S
Cosmos 1833 4.2 02:53:58 19° SSW 02:58:11 88° ESE 03:03:54 10° NNE
ACS3 Solar Sail 3.4 02:54:27 10° NNW 02:58:31 19° NW 03:02:06 12° W
Cosmos 1271 Rocket 3.7 03:01:02 22° W 03:02:06 26° WNW 03:05:05 10° N
H-2A R/B 2.1 02:58:10 10° NNE 03:03:20 85° ESE 03:08:28 11° SSW
CRYOSAT 2 4.4 02:59:29 10° S 03:04:22 85° E 03:09:18 10° N
Cosmos 2237 Rocket 4.2 02:59:26 10° NNW 03:04:35 33° NE 03:09:40 10° ESE
Cosmos 2219 Rocket 2.3 02:59:17 10° NW 03:04:45 54° WSW 03:10:14 10° S
SL-16 R/B 3.5 03:01:26 10° WNW 03:05:20 19° W 03:06:38 18° WSW
NOSS 3-3 (A) 4.4 03:01:35 17° WSW 03:05:41 51° NW 03:12:06 10° NE
SL-4 R/B 2.8 03:05:08 22° WSW 03:06:23 26° SW 03:09:35 10° SSE
Meteor 1-11 Rocket 4.3 03:01:10 10° NNW 03:06:40 41° W 03:11:37 12° SSW
Meteor 2-11 Rocket 4.4 03:01:20 10° N 03:07:32 86° W 03:13:41 10° S
CZ-3 Stage 3 4.4 03:05:05 14° SSW 03:10:51 27° SSE 03:28:12 10° ESE
CZ-4C R/B 3.6 03:07:21 10° WNW 03:11:38 29° NNW 03:17:00 10° NE
USA 290 2.6 03:10:18 24° SW 03:11:54 47° WNW 03:14:59 10° NNE
ARGOS 3.9 03:08:59 10° NNE 03:14:16 53° E 03:19:30 10° S
USA 267 3.3 03:08:56 10° ENE 03:15:33 88° SSE 03:21:22 14° WSW
METEOR-M 4.3 03:11:35 10° NNE 03:16:57 79° ESE 03:22:16 10° SSW
Gbstr 26 Del rocket 3.7 03:19:26 13° W 03:21:53 25° SW 03:24:59 10° SSE
NOSS 3-3 (C) 4.5 03:17:53 14° WSW 03:22:34 48° NNW 03:29:01 10° NE
Cosmos 2322 3.7 03:19:24 10° NNW 03:25:10 90° NE 03:30:52 10° SSE
Cosmos 372 Rocket 4.2 03:24:11 10° NNW 03:29:08 47° WSW 03:34:01 10° S
NOSS 3 (A) 4.5 03:28:34 10° NW 03:30:47 65° NE 03:33:38 10° SE
ISS -2.5 03:29:12 13° SSW 03:31:49 31° SSE 03:34:52 10° E
IDEFIX/ARIANE 42P 4.5 03:31:28 10° NNW 03:34:20 15° NW 03:37:13 10° W
Envisat 3.8 03:32:33 10° N 03:37:06 34° WNW 03:41:31 11° SW
BREEZE-M DEB (TANK) 3.1 03:31:26 12° SW 03:37:09 40° SSE 03:39:56 10° E
Meteor 2-4 Rocket 3.8 03:34:46 10° SSW 03:40:01 54° WNW 03:45:17 10° N
Cosmos 1461 2.6 03:37:00 11° SW 03:40:38 81° SE 03:44:22 10° NE
Aureole 1 Rocket 4.1 03:37:07 10° NW 03:40:43 27° WSW 03:45:00 10° SSW
NOSS 3-4 (A) 4.2 03:36:22 10° NW 03:42:43 43° WSW 03:50:05 10° S
H-2A R/B 3.8 03:41:22 11° SW 03:43:16 16° W 03:45:32 10° NW
NOSS 3-4 (C) 4.2 03:36:54 10° NW 03:43:18 43° WSW 03:50:40 10° S
Meteor 1-28 Rocket 4.3 03:41:06 10° SE 03:44:13 42° ENE 03:47:19 10° N
AQUA 3.8 03:39:50 10° NNE 03:44:33 90° ESE 03:49:14 10° SSW
Cosmos 1066 Rocket 4.1 03:40:07 10° SSW 03:45:27 67° WNW 03:50:48 10° N
NOSS 0 Rocket 4.0 03:39:14 10° NNW 03:45:29 89° ENE 03:51:39 10° SSE
Cosmos 1151 Rocket 3.4 03:44:51 10° S 03:49:00 66° E 03:53:14 10° NNE
Cosmos 1500 Rocket 3.7 03:45:53 10° N 03:50:19 86° E 03:54:44 10° S
Cosmos 1842 Rocket 3.9 03:46:58 10° SSW 03:51:07 47° WNW 03:55:19 10° N
ADEOS II 2.6 03:46:26 10° N 03:51:23 43° WNW 03:56:18 10° SW
Cosmos 1238 Rocket 3.9 03:50:22 10° WSW 03:52:20 17° WNW 03:54:23 10° NNW
ALOS 3.3 03:49:15 10° N 03:53:08 28° WNW 03:56:59 10° WSW
BREEZE-M DEB (TANK) 2.5 03:50:00 10° W 03:53:41 58° N 03:55:46 10° E
USA 234 3.7 03:47:46 10° SSE 03:53:50 40° SW 03:59:57 10° WNW
BREEZE-M DEB (TANK) 4.2 03:50:21 10° W 03:53:57 35° SSW 04:03:43 10° SE
Cosmos 1386 Rocket 4.5 03:48:21 10° NNW 03:54:25 70° W 04:00:34 10° S
ATLAS 2AS CENTAUR R/B 4.5 03:50:37 10° NW 03:56:22 28° N 04:02:04 10° ENE
TSX-5 3.0 03:54:13 10° NW 03:57:21 78° WSW 04:00:26 10° SSE
Cosmos 858 Rocket 4.5 03:52:20 10° NNW 03:57:31 68° WSW 04:02:37 10° SSE
Cosmos 2297 Rocket 3.4 03:52:26 10° S 03:57:43 43° ESE 04:03:02 10° NE
CZ-2D R/B 3.1 03:55:41 10° N 04:00:12 30° WNW 04:04:45 10° WSW
S3M 4.3 03:54:10 10° S 04:00:29 75° E 04:06:47 10° NNE
CZ-3 R/B 4.3 03:48:12 10° WSW 04:07:16 26° SSW 04:15:07 10° SSE
